Location: �terpigny
(49.8910°N, 2.9249°E)
Time: 11:53:10
(UTC+00:00)

Explorer 7 - All Passes

Search period start: 28 May 2022 00:00
Search period end: 07 June 2022 00:00
Orbit: 482 x 670 km, 50.3° (Epoch: 27 May)

Date Brightness Start Highest point End Pass type
(mag) Time Alt. Az. Time Alt. Az. Time Alt. Az.
28 May - 11:08:42 10° SSW 11:12:07 30° SSE 11:15:28 10° E daylight
28 May - 12:48:23 10° WSW 12:52:12 83° SSE 12:55:57 10° E daylight
28 May - 14:28:49 10° W 14:32:35 88° N 14:36:21 10° E daylight
28 May - 16:09:14 10° W 16:12:46 40° SSW 16:16:20 10° SE daylight
29 May - 09:34:27 10° SSE 09:35:25 11° SE 09:36:23 10° ESE daylight
29 May - 11:11:23 10° SW 11:15:03 42° SSE 11:18:38 10° E daylight
29 May - 12:51:26 10° W 12:55:15 87° N 12:59:01 10° E daylight
29 May - 14:31:52 10° W 14:35:38 82° SSW 14:39:24 10° ESE daylight
29 May - 16:12:24 10° W 16:15:41 29° SSW 16:19:01 10° SSE daylight
30 May - 09:35:44 10° S 09:38:13 16° SE 09:40:38 10° E daylight
30 May - 11:14:13 10° SW 11:18:01 55° SSE 11:21:43 10° E daylight
30 May - 12:54:30 10° W 12:58:19 83° N 13:02:04 10° E daylight
30 May - 14:34:55 10° W 14:38:39 68° SSW 14:42:23 10° ESE daylight
30 May - 16:15:41 10° W 16:18:33 21° SW 16:21:27 10° SSE daylight
31 May - 09:37:53 10° SSW 09:41:02 23° SE 09:44:07 10° E daylight
31 May - 11:17:08 10° WSW 11:21:00 70° SSE 11:24:45 10° E daylight
31 May - 12:57:33 10° W 13:01:21 83° N 13:05:07 10° E daylight
31 May - 14:37:58 10° W 14:41:38 52° SSW 14:45:17 10° SE daylight
31 May - 16:19:16 10° WSW 16:21:21 14° SW 16:23:29 10° S daylight
01 Jun - 09:40:21 10° SSW 09:43:54 32° SSE 09:47:20 10° E daylight
01 Jun - 11:20:07 10° WSW 11:24:00 84° SSE 11:27:47 10° E daylight
01 Jun - 13:00:35 10° W 13:04:24 89° NNE 13:08:09 10° E daylight
01 Jun - 14:41:03 10° W 14:44:34 39° SSW 14:48:05 10° SE daylight
02 Jun - 08:05:42 10° SSE 08:07:08 12° SE 08:08:32 10° ESE daylight
02 Jun - 09:43:01 10° SW 09:46:48 43° SSE 09:50:27 10° E daylight
02 Jun - 11:23:07 10° W 11:27:01 87° N 11:30:48 10° E daylight
02 Jun - 13:03:36 10° W 13:07:25 81° SSW 13:11:09 10° ESE daylight
02 Jun - 14:44:11 10° W 14:47:27 28° SSW 14:50:42 10° SSE daylight
03 Jun - 08:07:12 10° S 08:09:53 17° SE 08:12:31 10° E daylight
03 Jun - 09:45:49 10° WSW 09:49:44 57° SSE 09:53:29 10° E daylight
03 Jun - 11:26:08 10° W 11:30:02 83° N 11:33:49 10° E daylight
03 Jun - 13:06:37 10° W 13:10:23 67° SSW 13:14:05 10° ESE daylight
03 Jun - 14:47:26 10° W 14:50:15 20° SW 14:53:04 10° SSE daylight
04 Jun - 08:09:21 10° SSW 08:12:41 24° SE 08:15:53 10° E daylight
04 Jun - 09:48:42 10° WSW 09:52:41 72° SSE 09:56:30 10° E daylight
04 Jun - 11:29:09 10° W 11:33:03 83° N 11:36:49 10° E daylight
04 Jun - 13:09:37 10° W 13:13:19 52° SSW 13:16:57 10° SE daylight
04 Jun - 14:51:00 10° WSW 14:53:01 14° SW 14:55:01 10° S daylight
05 Jun - 08:11:48 10° SW 08:15:31 33° SSE 08:19:04 10° E daylight
05 Jun - 09:51:38 10° WSW 09:55:39 84° SSE 09:59:28 10° E daylight
05 Jun - 11:32:09 10° W 11:36:02 89° NNW 11:39:49 10° E daylight
05 Jun - 13:12:39 10° W 13:16:12 38° SSW 13:19:42 10° SE daylight
06 Jun - 06:36:52 10° SSE 06:38:40 13° SE 06:40:26 10° ESE daylight
06 Jun - 08:14:26 10° SW 08:18:23 45° SSE 08:22:07 10° E daylight
06 Jun - 09:54:36 10° W 09:58:37 87° N 10:02:27 10° E daylight
06 Jun - 11:35:08 10° W 11:39:01 80° SSW 11:42:47 10° ESE daylight
06 Jun - 13:15:45 10° W 13:19:01 28° SSW 13:22:16 10° SSE daylight
